EW5206 Weather Reports


Display with metric or nautical units.
time (UTC)temp
F
wind
direction
speed
MPH
gust
MPH
rain 1hr
in
rain 24hr
in
rain mn
in
humidity
%
barometer
mb
20210624161654 66 190 0.0 0.0 0.00 0.00 0.00 75 1027.6
20210624160116 65 179 0.0 0.0 0.00 0.00 0.00 74 1027.7
20210624154609 65 163 0.0 4.0 0.00 0.00 0.00 73 1027.8
20210624153109 65 186 1.0 5.0 0.00 0.00 0.00 74 1027.6
20210624151600 65 173 0.0 0.0 0.00 0.00 0.00 72 1027.6
20210624150100 65 219 0.0 0.0 0.00 0.00 0.00 73 1027.7
20210624144616 64 215 0.0 0.0 0.00 0.00 0.00 73 1027.6
20210624143104 64 355 0.0 2.0 0.00 0.00 0.00 72 1027.4
20210624141629 63 190 0.0 3.0 0.00 0.00 0.00 79 1027.3
20210624140117 63 201 0.0 2.0 0.00 0.00 0.00 75 1027.4
20210624134557 62 201 0.0 1.0 0.00 0.00 0.00 77 1027.6
20210624133055 62 200 0.0 1.0 0.00 0.00 0.00 78 1027.2
20210624131547 62 202 0.0 2.0 0.00 0.00 0.00 75 1027.0
20210624130042 60 202 0.0 0.0 0.00 0.00 0.00 76 1027.0
20210624124536 60 202 0.0 2.0 0.00 0.00 0.00 79 1026.9
20210624123045 59 109 0.0 1.0 0.00 0.00 0.00 81 1027.1
20210624121559 59 109 0.0 1.0 0.00 0.00 0.00 82 1026.9
20210624120029 58 109 0.0 0.0 0.00 0.00 0.00 81 1026.9
20210624114536 58 109 0.0 0.0 0.00 0.00 0.00 82 1026.8
20210624113031 58 109 0.0 0.0 0.00 0.00 0.00 80 1026.8
20210624111542 58 109 0.0 0.0 0.00 0.00 0.00 81 1026.8
20210624110057 58 109 0.0 0.0 0.00 0.00 0.00 81 1026.6
20210624104536 58 109 0.0 0.0 0.00 0.00 0.00 81 1026.6
20210624103053 58 109 0.0 0.0 0.00 0.00 0.00 85 1026.4
20210624101529 58 109 0.0 0.0 0.00 0.00 0.00 82 1026.3
20210624100014 59 109 0.0 0.0 0.00 0.00 0.00 77 1026.1
20210624094529 58 109 0.0 0.0 0.00 0.00 0.00 77 1026.0
20210624093040 58 109 0.0 0.0 0.00 0.00 0.00 77 1025.7
20210624091515 58 109 0.0 0.0 0.00 0.00 0.00 77 1025.6
20210624090022 58 109 0.0 0.0 0.00 0.00 0.00 77 1025.6
20210624084505 58 109 0.0 0.0 0.00 0.00 0.00 79 1025.5
20210624083005 58 109 0.0 0.0 0.00 0.00 0.00 79 1025.5
20210624081512 58 109 0.0 0.0 0.00 0.00 0.00 80 1025.4
20210624080008 58 109 0.0 0.0 0.00 0.00 0.00 80 1025.3
20210624074502 58 109 0.0 0.0 0.00 0.00 0.00 80 1025.2
20210624073139 58 109 0.0 0.0 0.00 0.00 0.00 79 1025.2
20210624071655 59 109 0.0 0.0 0.00 0.00 0.00 78 1025.4
20210624070207 59 109 0.0 0.0 0.00 0.00 0.00 78 1025.4
20210624064727 59 109 0.0 0.0 0.00 0.00 0.00 78 1025.4
20210624063242 59 109 0.0 0.0 0.00 0.00 0.00 79 1025.6
20210624061701 59 109 0.0 0.0 0.00 0.00 0.00 79 1025.8
20210624060131 59 109 0.0 0.0 0.00 0.00 0.00 80 1025.8
20210624054637 58 109 0.0 0.0 0.00 0.00 0.00 81 1025.8
20210624053410 58 109 0.0 0.0 0.00 0.00 0.00 81 1025.7
20210624051637 58 109 0.0 0.0 0.00 0.00 0.00 80 1025.8
20210624050135 59 109 0.0 0.0 0.00 0.00 0.00 80 1025.8
20210624044743 59 109 0.0 1.0 0.00 0.00 0.00 78 1025.7
20210624043111 60 109 0.0 0.0 0.00 0.00 0.00 78 1025.8
20210624041620 60 109 0.0 0.0 0.00 0.00 0.00 77 1025.8
20210624040101 60 109 0.0 0.0 0.00 0.00 0.00 77 1025.6
20210624034614 61 109 0.0 0.0 0.00 0.00 0.00 77 1025.6
20210624033115 61 109 0.0 0.0 0.00 0.00 0.00 76 1025.6
20210624031614 61 109 0.0 0.0 0.00 0.00 0.00 76 1025.5
20210624030114 62 109 0.0 0.0 0.00 0.00 0.00 76 1025.4
20210624024630 62 109 0.0 0.0 0.00 0.00 0.00 76 1025.6
20210624023146 62 109 0.0 0.0 0.00 0.00 0.00 75 1025.5
20210624021615 62 109 0.0 1.0 0.00 0.00 0.00 75 1025.4
20210624020144 63 108 0.0 1.0 0.00 0.00 0.00 74 1025.3
20210624014625 63 107 0.0 1.0 0.00 0.00 0.00 74 1025.1
20210624013042 63 91 0.0 2.0 0.00 0.00 0.00 74 1024.7
20210624011548 63 157 0.0 3.0 0.00 0.00 0.00 74 1024.6
20210624010108 64 195 0.0 0.0 0.00 0.00 0.00 74 1024.4
20210624004628 64 195 0.0 1.0 0.00 0.00 0.00 74 1024.2
20210624003037 65 181 0.0 0.0 0.00 0.00 0.00 73 1024.1
20210624001601 65 192 0.0 0.0 0.00 0.00 0.00 71 1023.9
20210624000103 66 163 0.0 1.0 0.00 0.00 0.00 70 1023.7
20210623234546 66 199 0.0 3.0 0.00 0.00 0.00 68 1023.6
20210623233024 66 195 0.0 5.0 0.00 0.00 0.00 67 1023.6
20210623231528 67 163 0.0 4.0 0.00 0.00 0.00 67 1023.6
20210623230026 67 165 2.0 9.0 0.00 0.00 0.00 64 1023.3
20210623224556 68 140 0.0 3.0 0.00 0.00 0.00 63 1023.3
20210623223023 68 190 0.0 0.0 0.00 0.00 0.00 62 1023.2
20210623221539 68 193 0.0 0.0 0.00 0.00 0.00 60 1023.1
20210623220034 68 209 0.0 2.0 0.00 0.00 0.00 61 1023.1
20210623214533 68 211 0.0 4.0 0.00 0.01 0.00 63 1023.0
20210623213040 69 196 0.0 2.0 0.00 0.01 0.00 62 1023.1
20210623211533 69 180 0.0 0.0 0.00 0.01 0.00 61 1023.3
20210623210051 70 177 0.0 0.0 0.00 0.01 0.00 60 1023.2
20210623204548 70 177 0.0 5.0 0.00 0.01 0.00 58 1023.3
20210623203043 69 188 0.0 3.0 0.00 0.01 0.00 58 1023.4
20210623201523 70 326 1.0 6.0 0.00 0.01 0.00 58 1023.3
20210623200015 70 174 0.0 4.0 0.00 0.01 0.00 58 1023.2
20210623194513 70 164 0.0 3.0 0.00 0.01 0.00 57 1023.4
20210623193021 69 208 0.0 2.0 0.00 0.01 0.00 64 1023.5
20210623191553 68 170 0.0 2.0 0.00 0.01 0.00 63 1023.6
20210623190012 70 163 0.0 4.0 0.00 0.01 0.00 59 1023.5
20210623184510 71 173 2.0 6.0 0.00 0.01 0.00 58 1023.5
20210623183024 70 179 1.0 4.0 0.00 0.01 0.00 62 1023.4
20210623181506 68 168 0.0 0.0 0.00 0.01 0.00 62 1023.4
20210623180007 69 210 0.0 4.0 0.00 0.01 0.00 60 1023.5
20210623174505 70 166 0.0 5.0 0.00 0.01 0.00 64 1023.5
20210623173004 70 159 0.0 2.0 0.00 0.01 0.00 58 1023.5
20210623171503 69 163 1.0 3.0 0.00 0.01 0.00 65 1023.6
20210623170004 70 201 0.0 0.0 0.00 0.01 0.00 62 1023.5
20210623164504 69 168 0.0 0.0 0.00 0.01 0.00 66 1023.5
20210623163001 69 173 0.0 0.0 0.00 0.01 0.00 61 1023.4